When you browse on this site, cookies collect data to enhance your experience and personalize the content and advertising you see.
Visit our Privacy Policy to learn more. By continuing to use the site, you agree to this use of cookies and data.
  • en France
  • Liste des pays
  • À 7 jours
  • Température de l'eau
  • Carte satellitaire
  • Carte météo
  • Widgets météo
  • user-avatar
    Se connecter

    Météo par heure à Andorre-la-Vieille

    Ce jour, 16 Janvier, Mercredi

    Heure Température Précipitation Vent Pression Humidité
    00:00 0°C° 0 mm 1 m/s 622 mmHg 38%
    01:00 +1°C° 0 mm 1 m/s 622 mmHg 35%
    02:00 +1°C° 0 mm 1 m/s 622 mmHg 32%
    03:00 +1°C° 0 mm 1 m/s 621 mmHg 29%
    04:00 +1°C° 0 mm 1 m/s 621 mmHg 30%
    05:00 +1°C° 0 mm 1 m/s 621 mmHg 30%
    06:00 +1°C° 0 mm 1 m/s 621 mmHg 31%
    07:00 +2°C° 0 mm 1 m/s 621 mmHg 32%
    08:00 +3°C° 0 mm 1 m/s 622 mmHg 33%
    09:00 +4°C° 0 mm 1 m/s 622 mmHg 34%
    10:00 +6°C° 0 mm 1 m/s 623 mmHg 34%
    11:00 +7°C° 0 mm 1 m/s 623 mmHg 35%
    12:00 +8°C° 0 mm 2 m/s 624 mmHg 35%
    13:00 +8°C° 0 mm 1 m/s 623 mmHg 38%
    14:00 +8°C° 0 mm 1 m/s 623 mmHg 42%
    15:00 +7°C° 0 mm 1 m/s 622 mmHg 45%
    16:00 +5°C° 0 mm 1 m/s 621 mmHg 53%
    17:00 +3°C° 0 mm 1 m/s 620 mmHg 62%
    18:00 -1°C° 0 mm 0 m/s 620 mmHg 70%
    19:00 -1°C° 0 mm 0 m/s 620 mmHg 70%
    20:00 -1°C° 0 mm 0 m/s 620 mmHg 70%
    21:00 -2°C° 0 mm 0 m/s 620 mmHg 70%
    22:00 -2°C° 0 mm 0 m/s 620 mmHg 69%
    23:00 -2°C° 0 mm 0 m/s 620 mmHg 68%

    Demain, 17 Janvier, Jeudi

    Heure Température Précipitation Vent Pression Humidité
    00:00 -2°C° 0 mm 0 m/s 620 mmHg 67%
    01:00 -2°C° 0 mm 0 m/s 619 mmHg 67%
    02:00 -1°C° 0 mm 1 m/s 619 mmHg 66%
    03:00 -1°C° 0 mm 1 m/s 619 mmHg 66%
    04:00 -2°C° 0 mm 1 m/s 619 mmHg 68%
    05:00 -2°C° 0 mm 1 m/s 619 mmHg 70%
    06:00 -2°C° 0 mm 1 m/s 619 mmHg 72%
    07:00 -1°C° 0 mm 1 m/s 619 mmHg 71%
    08:00 0°C° 0 mm 1 m/s 620 mmHg 69%
    09:00 +1°C° 0 mm 1 m/s 621 mmHg 68%
    10:00 +2°C° 0.1 mm 1 m/s 621 mmHg 68%
    11:00 +2°C° 0.1 mm 2 m/s 621 mmHg 68%
    12:00 +3°C° 0.1 mm 2 m/s 622 mmHg 67%
    13:00 +2°C° 0.2 mm 2 m/s 621 mmHg 70%
    14:00 +1°C° 0.2 mm 2 m/s 621 mmHg 72%
    15:00 +1°C° 0.2 mm 2 m/s 621 mmHg 75%
    16:00 -1°C° 0.2 mm 2 m/s 621 mmHg 78%
    17:00 -2°C° 0.2 mm 2 m/s 621 mmHg 81%
    18:00 -3°C° 0.2 mm 2 m/s 621 mmHg 84%
    19:00 -3°C° 0 mm 2 m/s 621 mmHg 85%
    20:00 -3°C° 0 mm 2 m/s 621 mmHg 86%
    21:00 -4°C° 0 mm 2 m/s 621 mmHg 87%
    22:00 -4°C° 0 mm 2 m/s 621 mmHg 87%
    23:00 -4°C° 0 mm 2 m/s 621 mmHg 86%

    Après-demain, 18 Janvier, Vendredi

    Heure Température Précipitation Vent Pression Humidité
    00:00 -4°C° 0 mm 2 m/s 621 mmHg 85%
    01:00 -5°C° 0 mm 2 m/s 621 mmHg 86%
    02:00 -5°C° 0 mm 2 m/s 620 mmHg 87%
    03:00 -4°C° 0 mm 1 m/s 620 mmHg 87%
    04:00 -6°C° 0 mm 2 m/s 620 mmHg 87%
    05:00 -6°C° 0 mm 2 m/s 620 mmHg 87%
    06:00 -6°C° 0 mm 2 m/s 620 mmHg 86%
    07:00 -6°C° 0 mm 2 m/s 620 mmHg 81%
    08:00 -3°C° 0 mm 1 m/s 620 mmHg 75%
    09:00 -2°C° 0 mm 1 m/s 621 mmHg 69%
    10:00 -1°C° 0 mm 1 m/s 621 mmHg 59%
    11:00 +1°C° 0 mm 1 m/s 622 mmHg 48%
    12:00 +3°C° 0 mm 1 m/s 622 mmHg 37%
    13:00 +2°C° 0 mm 1 m/s 621 mmHg 42%
    14:00 +1°C° 0 mm 1 m/s 621 mmHg 46%
    15:00 +1°C° 0 mm 1 m/s 620 mmHg 50%
    16:00 0°C° 0 mm 1 m/s 620 mmHg 58%
    17:00 -1°C° 0 mm 1 m/s 620 mmHg 65%
    18:00 -3°C° 0 mm 0 m/s 619 mmHg 72%
    19:00 -3°C° 0 mm 0 m/s 620 mmHg 71%
    20:00 -3°C° 0 mm 0 m/s 620 mmHg 70%
    21:00 -3°C° 0 mm 0 m/s 620 mmHg 69%
    22:00 -4°C° 0 mm 0 m/s 620 mmHg 70%
    23:00 -4°C° 0 mm 0 m/s 619 mmHg 70%

    19 Janvier, Samedi

    Heure Température Précipitation Vent Pression Humidité
    00:00 -5°C° 0 mm 0 m/s 619 mmHg 71%
    01:00 -5°C° 0 mm 0 m/s 619 mmHg 70%
    02:00 -4°C° 0 mm 1 m/s 619 mmHg 69%
    03:00 -4°C° 0 mm 1 m/s 618 mmHg 68%
    04:00 -4°C° 0 mm 1 m/s 618 mmHg 66%
    05:00 -4°C° 0 mm 1 m/s 618 mmHg 64%
    06:00 -4°C° 0 mm 1 m/s 618 mmHg 63%
    07:00 -3°C° 0 mm 1 m/s 619 mmHg 58%
    08:00 -3°C° 0 mm 0 m/s 619 mmHg 54%
    09:00 -1°C° 0 mm 0 m/s 620 mmHg 49%
    10:00 +1°C° 0 mm 1 m/s 620 mmHg 48%
    11:00 +2°C° 0 mm 1 m/s 620 mmHg 47%
    12:00 +2°C° 0 mm 2 m/s 620 mmHg 45%
    13:00 +2°C° 0 mm 2 m/s 619 mmHg 48%
    14:00 +2°C° 0 mm 2 m/s 618 mmHg 51%
    15:00 +2°C° 0 mm 2 m/s 618 mmHg 54%
    16:00 -1°C° 0 mm 2 m/s 617 mmHg 64%
    17:00 -2°C° 0 mm 2 m/s 616 mmHg 73%
    18:00 -4°C° 0 mm 2 m/s 615 mmHg 82%
    19:00 -4°C° 0.1 mm 2 m/s 615 mmHg 84%
    20:00 -3°C° 0.1 mm 2 m/s 615 mmHg 86%
    21:00 -3°C° 0.1 mm 2 m/s 615 mmHg 88%
    22:00 -3°C° 0.2 mm 2 m/s 615 mmHg 89%
    23:00 -1°C° 0.2 mm 1 m/s 614 mmHg 91%

    20 Janvier, Dimanche

    Heure Température Précipitation Vent Pression Humidité
    00:00 0°C° 0.2 mm 1 m/s 614 mmHg 92%
    01:00 0°C° 0.3 mm 1 m/s 614 mmHg 92%
    02:00 0°C° 0.3 mm 1 m/s 614 mmHg 92%
    03:00 0°C° 0.3 mm 1 m/s 614 mmHg 92%
    04:00 0°C° 0.6 mm 1 m/s 614 mmHg 92%
    05:00 +1°C° 0.6 mm 1 m/s 614 mmHg 92%
    06:00 +1°C° 0.6 mm 1 m/s 614 mmHg 92%
    07:00 +1°C° 0.7 mm 1 m/s 615 mmHg 91%
    08:00 +2°C° 0.7 mm 1 m/s 615 mmHg 90%
    09:00 +1°C° 0.7 mm 2 m/s 616 mmHg 89%
    10:00 +1°C° 0.6 mm 2 m/s 616 mmHg 87%
    11:00 0°C° 0.6 mm 3 m/s 617 mmHg 85%
    12:00 0°C° 0.6 mm 3 m/s 617 mmHg 83%
    13:00 0°C° 0.1 mm 3 m/s 617 mmHg 82%
    14:00 -1°C° 0.1 mm 3 m/s 617 mmHg 80%
    15:00 -2°C° 0.1 mm 4 m/s 617 mmHg 79%
    16:00 -2°C° 0.1 mm 3 m/s 617 mmHg 81%
    17:00 -4°C° 0.1 mm 3 m/s 617 mmHg 83%
    18:00 -5°C° 0.1 mm 3 m/s 617 mmHg 86%
    19:00 -5°C° 0 mm 3 m/s 617 mmHg 86%
    20:00 -5°C° 0 mm 3 m/s 618 mmHg 86%
    21:00 -6°C° 0 mm 3 m/s 618 mmHg 87%
    22:00 -6°C° 0 mm 3 m/s 618 mmHg 87%
    23:00 -6°C° 0 mm 3 m/s 618 mmHg 88%

    21 Janvier, Lundi

    Heure Température Précipitation Vent Pression Humidité
    00:00 -6°C° 0 mm 3 m/s 618 mmHg 89%
    01:00 -6°C° 0 mm 3 m/s 618 mmHg 89%
    02:00 -6°C° 0 mm 3 m/s 618 mmHg 89%
    03:00 -6°C° 0 mm 3 m/s 618 mmHg 89%
    04:00 -6°C° 0.1 mm 3 m/s 618 mmHg 89%
    05:00 -6°C° 0.1 mm 3 m/s 618 mmHg 89%
    06:00 -7°C° 0.1 mm 3 m/s 618 mmHg 89%
    07:00 -6°C° 0.1 mm 3 m/s 619 mmHg 86%
    08:00 -7°C° 0.1 mm 4 m/s 619 mmHg 83%
    09:00 -5°C° 0.1 mm 4 m/s 620 mmHg 80%
    10:00 -5°C° 0.1 mm 4 m/s 620 mmHg 77%
    11:00 -4°C° 0.1 mm 4 m/s 620 mmHg 74%
    12:00 -4°C° 0.1 mm 4 m/s 620 mmHg 71%
    13:00 -4°C° 0.1 mm 4 m/s 620 mmHg 71%
    14:00 -4°C° 0.1 mm 4 m/s 620 mmHg 72%
    15:00 -5°C° 0.1 mm 4 m/s 620 mmHg 72%
    16:00 -7°C° 0.1 mm 4 m/s 620 mmHg 77%
    17:00 -8°C° 0.1 mm 4 m/s 619 mmHg 82%
    18:00 -9°C° 0.1 mm 4 m/s 619 mmHg 86%
    19:00 -9°C° 0.1 mm 4 m/s 620 mmHg 86%
    20:00 -9°C° 0.1 mm 4 m/s 620 mmHg 86%
    21:00 -9°C° 0.1 mm 4 m/s 620 mmHg 86%
    22:00 -9°C° 0.2 mm 4 m/s 620 mmHg 85%
    23:00 -9°C° 0.2 mm 4 m/s 620 mmHg 85%
    Voir plus